W4SNA-4 Weather Reports


Display with metric or nautical units.
time (UTC)temp
F
wind
direction
speed
MPH
gust
MPH
rain 1hr
in
rain 24hr
in
rain mn
in
humidity
%
barometer
mb
20260905232651 78 0 0.0 0.0 0.00 0.37 0.37 88 1006.5
20260905232152 78 0 0.0 0.0 0.00 0.37 0.37 88 1006.6
20260905231652 78 0 0.0 0.0 0.00 0.37 0.37 89 1006.6
20260905231155 78 0 0.0 0.0 0.00 0.37 0.37 88 1006.6
20260905230654 78 0 0.0 0.0 0.00 0.37 0.37 88 1006.5
20260905230158 78 0 0.0 0.0 0.00 0.37 0.37 88 1006.5
20260905225650 78 0 0.0 0.0 0.00 0.37 0.37 88 1006.5
20260905225149 78 0 0.0 0.0 0.00 0.37 0.37 87 1006.4
20260905224649 78 0 0.0 0.0 0.00 0.37 0.37 87 1006.4
20260905224155 78 0 0.0 0.0 0.00 0.37 0.37 87 1006.4
20260905223653 78 0 0.0 0.0 0.00 0.37 0.37 86 1006.3
20260905223223 78 0 0.0 0.0 0.00 0.37 0.37 86 1006.3
20260905222710 78 0 0.0 0.0 0.00 0.37 0.37 87 1006.3
20260905222155 78 0 0.0 0.0 0.00 0.37 0.37 87 1006.3
20260905221649 77 0 0.0 0.0 0.00 0.37 0.37 86 1006.3
20260905221154 77 0 0.0 0.0 0.00 0.37 0.37 86 1006.3
20260905220653 77 0 0.0 0.0 0.00 0.37 0.37 86 1006.5
20260905220220 77 0 0.0 0.0 0.00 0.37 0.37 86 1006.5
20260905215649 77 0 0.0 0.0 0.00 0.37 0.37 87 1006.5
20260905215202 77 0 0.0 0.0 0.00 0.37 0.37 87 1006.7
20260905214649 77 0 0.0 0.0 0.00 0.37 0.37 87 1006.7
20260905214205 77 0 0.0 0.0 0.00 0.37 0.37 87 1006.7
20260905213336 76 0 0.0 0.0 0.00 0.37 0.37 85 1006.8
20260905212837 76 0 0.0 0.0 0.00 0.37 0.37 85 1006.8
20260905212336 76 0 0.0 0.0 0.00 0.37 0.37 84 1006.8
20260905211837 76 0 0.0 0.0 0.00 0.37 0.37 82 1006.8
20260905211336 75 0 0.0 0.0 0.00 0.37 0.37 81 1006.8
20260905210836 75 0 0.0 0.0 0.00 0.37 0.37 82 1006.9
20260905210336 74 0 0.0 0.0 0.00 0.37 0.37 86 1006.9
20260905205836 74 0 0.0 0.0 0.00 0.37 0.37 86 1006.9
20260905205337 74 0 0.0 0.0 0.00 0.37 0.37 86 1006.8
20260905204847 73 0 0.0 0.0 0.00 0.37 0.37 84 1006.8
20260905204337 73 0 0.0 0.0 0.00 0.37 0.37 82 1006.8
20260905203839 73 0 0.0 0.0 0.00 0.37 0.37 84 1006.6
20260905203219 72 0 0.0 0.0 0.00 0.37 0.37 86 1006.6
20260905202657 72 0 0.0 0.0 0.00 0.37 0.37 90 1006.6
20260905202158 72 0 0.0 0.0 0.00 0.37 0.37 89 1006.9
20260905201658 72 0 0.0 0.0 0.00 0.37 0.37 88 1006.9
20260905201156 72 0 0.0 0.0 0.00 0.37 0.37 91 1006.9
20260905200656 72 0 0.0 0.0 0.00 0.37 0.37 92 1007.3
20260905200211 71 0 0.0 0.0 0.00 0.37 0.37 93 1007.3
20260905195656 71 0 0.0 0.0 0.00 0.37 0.37 92 1007.3
20260905195155 71 0 0.0 0.0 0.00 0.37 0.37 94 1007.5
20260905194703 71 0 0.0 0.0 0.00 0.37 0.37 94 1007.5
20260905194206 71 0 0.0 0.0 0.00 0.37 0.37 94 1007.5
20260905193659 71 0 0.0 0.0 0.00 0.37 0.37 94 1007.2
20260905193159 71 0 0.0 0.0 0.01 0.37 0.37 94 1007.2
20260905192656 71 0 0.0 0.0 0.16 0.37 0.37 94 1007.2
20260905192201 71 0 0.0 0.0 0.37 0.37 0.37 94 1007.0
20260905191655 71 0 0.0 0.0 0.37 0.37 0.37 94 1007.0
20260905191156 71 0 0.0 0.0 0.37 0.37 0.37 93 1007.0
20260905190655 71 0 0.0 0.0 0.37 0.37 0.37 93 1006.1
20260905190200 71 0 0.0 0.0 0.37 0.37 0.37 91 1006.1
20260905185701 71 0 0.0 0.0 0.37 0.37 0.37 90 1006.1
20260905185155 71 0 0.0 0.0 0.37 0.37 0.37 89 1007.0
20260905184656 71 0 0.0 0.0 0.37 0.37 0.37 88 1007.0
20260905184155 72 0 0.0 0.0 0.37 0.37 0.37 85 1007.0
20260905183701 73 0 0.0 1.0 0.37 0.37 0.37 87 1008.2
20260905183203 74 0 0.0 10.0 0.36 0.36 0.36 86 1008.2
20260905182656 76 0 0.0 18.0 0.21 0.21 0.21 81 1008.2
20260905182156 81 326 3.0 18.0 0.00 0.00 0.00 67 1007.1
20260905181445 88 335 3.0 17.0 0.00 0.00 0.00 55 1007.1
20260905180622 91 0 0.0 0.0 0.00 0.00 0.00 62 1007.2
20260905180121 91 0 0.0 0.0 0.00 0.00 0.00 62 1007.2
20260905175622 92 0 0.0 0.0 0.00 0.00 0.00 60 1007.2
20260905175123 92 0 0.0 0.0 0.00 0.00 0.00 58 1007.2
20260905174621 92 0 0.0 0.0 0.00 0.00 0.00 61 1007.2
20260905174122 92 0 0.0 0.0 0.00 0.00 0.00 60 1007.2
20260905173621 92 0 0.0 0.0 0.00 0.00 0.00 59 1007.7
20260905173122 92 0 0.0 0.0 0.00 0.00 0.00 58 1007.7
20260905172621 92 0 0.0 0.0 0.00 0.00 0.00 59 1007.7
20260905172121 92 0 0.0 0.0 0.00 0.00 0.00 59 1008.1
20260905171622 92 0 0.0 0.0 0.00 0.00 0.00 61 1008.1
20260905171123 91 0 0.0 0.0 0.00 0.00 0.00 59 1008.1
20260905170622 91 0 0.0 0.0 0.00 0.00 0.00 60 1008.2
20260905170121 91 0 0.0 1.0 0.00 0.00 0.00 61 1008.2
20260905165622 91 0 0.0 1.0 0.00 0.00 0.00 61 1008.2
20260905165121 91 0 0.0 0.0 0.00 0.00 0.00 61 1008.2
20260905164457 91 0 0.0 0.0 0.00 0.00 0.00 61 1008.2
20260905163957 91 0 0.0 0.0 0.00 0.00 0.00 63 1008.5
20260905163459 91 0 0.0 0.0 0.00 0.00 0.00 62 1008.5
20260905162957 91 0 0.0 0.0 0.00 0.00 0.00 61 1008.5
20260905162457 91 0 0.0 0.0 0.00 0.00 0.00 61 1008.7
20260905161457 91 0 0.0 0.0 0.00 0.00 0.00 63 1008.7
20260905160957 91 0 0.0 0.0 0.00 0.00 0.00 64 1008.7
20260905160456 91 0 0.0 1.0 0.00 0.00 0.00 63 1008.7
20260905155957 91 0 0.0 1.0 0.00 0.00 0.00 63 1008.7
20260905155457 91 0 0.0 0.0 0.00 0.00 0.00 64 1008.7
20260905154957 91 0 0.0 0.0 0.00 0.00 0.00 63 1008.7
20260905154457 91 0 0.0 0.0 0.00 0.00 0.00 64 1008.7
20260905153956 90 0 0.0 0.0 0.00 0.00 0.00 64 1008.7
20260905153010 90 0 0.0 0.0 0.00 0.00 0.00 68 1008.7
20260905152512 89 0 0.0 0.0 0.00 0.00 0.00 67 1008.8
20260905152012 89 0 0.0 0.0 0.00 0.00 0.00 67 1008.8
20260905151521 89 0 0.0 0.0 0.00 0.00 0.00 69 1008.8
20260905151011 88 0 0.0 0.0 0.00 0.00 0.00 69 1009.0
20260905150510 88 0 0.0 0.0 0.00 0.00 0.00 71 1009.0
20260905150010 88 0 0.0 0.0 0.00 0.00 0.00 71 1009.0
20260905145511 87 0 0.0 0.0 0.00 0.00 0.00 70 1009.1
20260905145010 87 0 0.0 0.0 0.00 0.00 0.00 72 1009.1
20260905144513 87 0 0.0 0.0 0.00 0.00 0.00 72 1009.1
20260905144016 86 0 0.0 0.0 0.00 0.00 0.00 73 1009.1
20260905143510 86 0 0.0 0.0 0.00 0.00 0.00 74 1009.1
20260905143012 85 0 0.0 0.0 0.00 0.00 0.00 74 1009.1
20260905142511 84 0 0.0 0.0 0.00 0.00 0.00 76 1008.8
20260905142012 84 0 0.0 0.0 0.00 0.00 0.00 77 1008.8
20260905141510 83 0 0.0 0.0 0.00 0.00 0.00 77 1008.8
20260905140616 81 0 0.0 0.0 0.00 0.00 0.00 81 1008.9
20260905140115 80 0 0.0 0.0 0.00 0.00 0.00 82 1008.9
20260905135615 80 0 0.0 0.0 0.00 0.00 0.00 83 1008.9
20260905135136 79 0 0.0 0.0 0.00 0.00 0.00 85 1009.2
20260905134705 79 0 0.0 0.0 0.00 0.00 0.00 85 1009.2
20260905134615 79 0 0.0 0.0 0.00 0.00 0.00 85 1009.2
20260905134134 78 0 0.0 0.0 0.00 0.00 0.00 85 1009.2
20260905133616 78 0 0.0 0.0 0.00 0.00 0.00 86 1009.2
20260905133116 78 0 0.0 0.0 0.00 0.00 0.00 86 1009.2
20260905132626 78 0 0.0 0.0 0.00 0.00 0.00 85 1009.2
20260905131943 77 0 0.0 0.0 0.00 0.00 0.00 86 1009.3
20260905131510 77 0 0.0 0.0 0.00 0.00 0.00 86 1009.3
20260905130739 77 0 0.0 0.0 0.00 0.00 0.00 87 1009.3
20260905130242 77 0 0.0 0.0 0.00 0.00 0.00 87 1009.3
20260905125740 77 0 0.0 0.0 0.00 0.00 0.00 86 1009.3
20260905125239 77 0 0.0 0.0 0.00 0.00 0.00 85 1009.3
20260905124742 76 0 0.0 0.0 0.00 0.00 0.00 85 1009.3
20260905124241 76 0 0.0 0.0 0.00 0.00 0.00 84 1009.3
20260905123739 76 0 0.0 0.0 0.00 0.00 0.00 84 1009.1
20260905123238 76 0 0.0 0.0 0.00 0.00 0.00 85 1009.1
20260905122747 75 0 0.0 0.0 0.00 0.00 0.00 85 1009.1
20260905122239 75 0 0.0 0.0 0.00 0.00 0.00 85 1009.1
20260905121745 75 0 0.0 0.0 0.00 0.00 0.00 86 1009.1
20260905121239 75 0 0.0 0.0 0.00 0.00 0.00 86 1009.1
20260905120740 75 0 0.0 0.0 0.00 0.00 0.00 86 1009.2
20260905120239 74 0 0.0 0.0 0.00 0.00 0.00 87 1009.2
20260905115739 74 0 0.0 0.0 0.00 0.00 0.00 87 1009.2
20260905115239 74 0 0.0 0.0 0.00 0.00 0.00 88 1008.9
20260905114723 74 0 0.0 0.0 0.00 0.00 0.00 88 1008.9
20260905114226 74 0 0.0 0.0 0.00 0.00 0.00 89 1008.9
20260905113612 74 0 0.0 0.0 0.00 0.00 0.00 89 1008.8
20260905113112 74 0 0.0 0.0 0.00 0.00 0.00 89 1008.8
20260905112613 74 0 0.0 0.0 0.00 0.00 0.00 89 1008.8
20260905112112 74 0 0.0 0.0 0.00 0.00 0.00 90 1008.4
20260905111618 74 0 0.0 0.0 0.00 0.00 0.00 90 1008.4
20260905111115 74 0 0.0 0.0 0.00 0.00 0.00 90 1008.4
20260905110612 74 0 0.0 0.0 0.00 0.00 0.00 90 1008.3
20260905110112 74 0 0.0 0.0 0.00 0.00 0.00 90 1008.3
20260905105611 74 0 0.0 0.0 0.00 0.00 0.00 90 1008.3
20260905105112 74 0 0.0 0.0 0.00 0.00 0.00 90 1008.2
20260905104611 75 0 0.0 0.0 0.00 0.00 0.00 90 1008.2
20260905104126 75 0 0.0 0.0 0.00 0.00 0.00 90 1008.2
20260905103612 75 0 0.0 0.0 0.00 0.00 0.00 90 1008.2
20260905103112 75 0 0.0 0.0 0.00 0.00 0.00 90 1008.2
20260905102615 75 0 0.0 0.0 0.00 0.00 0.00 90 1008.2
20260905102117 75 0 0.0 0.0 0.00 0.00 0.00 90 1008.2
20260905101617 75 0 0.0 0.0 0.00 0.00 0.00 90 1008.2
20260905101111 75 0 0.0 0.0 0.00 0.00 0.00 90 1008.2
20260905100615 75 0 0.0 0.0 0.00 0.00 0.00 90 1007.9
20260905100112 75 0 0.0 0.0 0.00 0.00 0.00 90 1007.9
20260905095615 75 0 0.0 0.0 0.00 0.00 0.00 90 1007.9
20260905095119 75 0 0.0 0.0 0.00 0.00 0.00 91 1007.8
20260905094611 75 0 0.0 0.0 0.00 0.00 0.00 91 1007.8
20260905094112 75 0 0.0 0.0 0.00 0.00 0.00 91 1007.8
20260905093612 75 0 0.0 0.0 0.00 0.00 0.00 91 1007.8
20260905093112 75 0 0.0 0.0 0.00 0.00 0.00 91 1007.8
20260905092612 75 0 0.0 0.0 0.00 0.00 0.00 91 1007.8
20260905092113 75 0 0.0 0.0 0.00 0.00 0.00 90 1007.8
20260905091612 75 0 0.0 0.0 0.00 0.00 0.00 89 1007.8
20260905091130 75 0 0.0 0.0 0.00 0.00 0.00 88 1007.8
20260905090616 75 0 0.0 0.0 0.00 0.00 0.00 87 1007.8
20260905090114 76 0 0.0 0.0 0.00 0.00 0.00 87 1007.8
20260905085612 76 0 0.0 0.0 0.00 0.00 0.00 86 1007.8
20260905085116 76 0 0.0 0.0 0.00 0.00 0.00 86 1008.1
20260905084614 76 0 0.0 0.0 0.00 0.00 0.00 86 1008.1
20260905084126 76 0 0.0 0.0 0.00 0.00 0.00 83 1008.1
20260905083616 76 0 0.0 0.0 0.00 0.00 0.00 83 1008.1
20260905083112 76 0 0.0 0.0 0.00 0.00 0.00 83 1008.1
20260905082613 75 0 0.0 0.0 0.00 0.00 0.00 84 1008.1
20260905082113 75 0 0.0 0.0 0.00 0.00 0.00 85 1008.2
20260905081612 76 0 0.0 0.0 0.00 0.00 0.00 86 1008.2
20260905081114 76 0 0.0 0.0 0.00 0.00 0.00 86 1008.2
20260905080612 76 0 0.0 0.0 0.00 0.00 0.00 85 1008.6
20260905080111 76 0 0.0 0.0 0.00 0.00 0.00 85 1008.6
20260905075612 76 0 0.0 0.0 0.00 0.00 0.00 85 1008.6
20260905075111 76 0 0.0 0.0 0.00 0.00 0.00 85 1008.7
20260905074612 76 0 0.0 0.0 0.00 0.00 0.00 85 1008.7
20260905074114 76 0 0.0 0.0 0.00 0.00 0.00 84 1008.7
20260905073611 76 0 0.0 0.0 0.00 0.00 0.00 83 1008.7
20260905073112 76 0 0.0 0.0 0.00 0.00 0.00 83 1008.7
20260905072115 76 0 0.0 0.0 0.00 0.00 0.00 85 1008.7
20260905071615 76 0 0.0 0.0 0.00 0.00 0.00 86 1008.7
20260905071115 76 0 0.0 0.0 0.00 0.00 0.00 86 1008.7
20260905070615 76 0 0.0 0.0 0.00 0.00 0.00 87 1009.1
20260905070115 76 0 0.0 0.0 0.00 0.00 0.00 88 1009.1
20260905065615 77 0 0.0 0.0 0.00 0.00 0.00 88 1009.1
20260905065115 77 0 0.0 0.0 0.00 0.00 0.00 88 1009.2
20260905064617 77 0 0.0 0.0 0.00 0.00 0.00 87 1009.2
20260905064125 77 0 0.0 0.0 0.00 0.00 0.00 86 1009.2
20260905063618 77 0 0.0 0.0 0.00 0.00 0.00 86 1009.5
20260905063115 78 0 0.0 0.0 0.00 0.00 0.00 85 1009.5
20260905062616 78 0 0.0 0.0 0.00 0.00 0.00 84 1009.5
20260905062117 78 0 0.0 0.0 0.00 0.00 0.00 84 1009.6
20260905061616 78 0 0.0 0.0 0.00 0.00 0.00 83 1009.6
20260905061121 78 0 0.0 0.0 0.00 0.00 0.00 83 1009.6
20260905060615 79 0 0.0 0.0 0.00 0.00 0.00 83 1009.7
20260905060115 79 0 0.0 0.0 0.00 0.00 0.00 82 1009.7
20260905055622 79 0 0.0 0.0 0.00 0.00 0.00 82 1009.7
20260905055116 79 0 0.0 0.0 0.00 0.00 0.00 82 1009.8
20260905054615 79 0 0.0 0.0 0.00 0.00 0.00 82 1009.8
20260905054115 79 0 0.0 0.0 0.00 0.00 0.00 82 1009.8
20260905053615 79 0 0.0 0.0 0.00 0.00 0.00 82 1009.9
20260905053115 80 0 0.0 0.0 0.00 0.00 0.00 82 1009.9
20260905052621 80 0 0.0 0.0 0.00 0.00 0.00 82 1009.9
20260905052115 79 0 0.0 0.0 0.00 0.00 0.00 82 1010.3
20260905051619 79 0 0.0 0.0 0.00 0.00 0.00 82 1010.3
20260905051115 79 0 0.0 0.0 0.00 0.00 0.00 83 1010.3
20260905050616 79 0 0.0 0.0 0.00 0.00 0.00 83 1010.3
20260905050115 79 0 0.0 0.0 0.00 0.00 0.00 82 1010.3
20260905045615 80 0 0.0 0.0 0.00 0.00 0.00 82 1010.3
20260905045115 80 0 0.0 0.0 0.00 0.00 0.00 80 1010.3
20260905044615 81 0 0.0 0.0 0.00 0.00 0.00 79 1010.3
20260905044123 81 0 0.0 0.0 0.00 0.00 0.00 78 1010.3
20260905043615 81 0 0.0 0.0 0.00 0.00 0.00 77 1010.3
20260905043114 82 0 0.0 0.0 0.00 0.00 0.00 77 1010.3
20260905042615 82 0 0.0 0.0 0.00 0.00 0.00 76 1010.3
20260905042114 82 0 0.0 0.0 0.00 0.00 0.00 76 1010.4
20260905041620 82 0 0.0 0.0 0.00 0.00 0.00 76 1010.4
20260905040753 82 0 0.0 0.0 0.00 0.00 0.00 76 1010.3
20260905040253 82 0 0.0 0.0 0.00 0.00 0.00 77 1010.3
20260905035752 82 0 0.0 0.0 0.00 0.00 0.00 77 1010.3
20260905035253 82 0 0.0 0.0 0.00 0.00 0.00 77 1009.9
20260905033836 82 0 0.0 0.0 0.00 0.00 0.00 77 1009.9
20260905033337 82 0 0.0 0.0 0.00 0.00 0.00 77 1009.9
20260905032835 82 0 0.0 0.0 0.00 0.00 0.00 77 1009.9
20260905032336 82 0 0.0 0.0 0.00 0.00 0.00 77 1009.9
20260905031916 82 0 0.0 0.0 0.00 0.00 0.00 77 1009.9
20260905031834 82 0 0.0 0.0 0.00 0.00 0.00 77 1009.9
20260905031336 82 0 0.0 0.0 0.00 0.00 0.00 77 1009.9
20260905030834 82 0 0.0 0.0 0.00 0.00 0.00 77 1009.8
20260905030335 82 0 0.0 0.0 0.00 0.00 0.00 77 1009.8
20260905025834 82 0 0.0 0.0 0.00 0.00 0.00 77 1009.8
20260905025335 82 0 0.0 0.0 0.00 0.00 0.00 77 1009.8
20260905024834 82 0 0.0 0.0 0.00 0.00 0.00 77 1009.8
20260905024334 82 0 0.0 0.0 0.00 0.00 0.00 77 1009.8
20260905023404 82 0 0.0 0.0 0.00 0.00 0.00 77 1010.1
20260905022904 82 0 0.0 0.0 0.00 0.00 0.00 77 1010.1
20260905022407 82 0 0.0 0.0 0.00 0.00 0.00 77 1010.1
20260905021906 82 0 0.0 0.0 0.00 0.00 0.00 77 1010.1
20260905021405 82 0 0.0 0.0 0.00 0.00 0.00 77 1010.1
20260905020904 82 0 0.0 0.0 0.00 0.00 0.00 77 1009.8
20260905020418 82 0 0.0 0.0 0.00 0.00 0.00 77 1009.8
20260905015906 82 0 0.0 0.0 0.00 0.00 0.00 77 1009.8
20260905015403 82 0 0.0 0.0 0.00 0.00 0.00 77 1009.8
20260905014906 82 0 0.0 0.0 0.00 0.00 0.00 77 1009.8
20260905014402 83 0 0.0 0.0 0.00 0.00 0.00 77 1009.8
20260905013902 83 0 0.0 0.0 0.00 0.00 0.00 77 1009.7
20260905013405 83 0 0.0 0.0 0.00 0.00 0.00 76 1009.7
20260905012901 83 0 0.0 0.0 0.00 0.00 0.00 76 1009.7
20260905012403 83 0 0.0 0.0 0.00 0.00 0.00 75 1009.8
20260905011907 83 0 0.0 0.0 0.00 0.00 0.00 75 1009.8
20260905011403 83 0 0.0 0.0 0.00 0.00 0.00 74 1009.8
20260905010904 83 0 0.0 0.0 0.00 0.00 0.00 74 1009.7
20260905010405 83 0 0.0 0.0 0.00 0.00 0.00 73 1009.7
20260905005904 83 0 0.0 0.0 0.00 0.00 0.00 73 1009.7
20260905005405 83 0 0.0 0.0 0.00 0.00 0.00 73 1009.8
20260905004916 84 0 0.0 1.0 0.00 0.00 0.00 73 1009.8
20260905004404 84 0 0.0 1.0 0.00 0.00 0.00 73 1009.8
20260905003905 84 0 0.0 0.0 0.00 0.00 0.00 73 1009.8
20260905003405 84 0 0.0 0.0 0.00 0.00 0.00 73 1009.8
20260905002910 84 0 0.0 0.0 0.00 0.00 0.00 73 1009.8
20260905002405 84 0 0.0 2.0 0.00 0.00 0.00 73 1009.8
20260905001902 84 0 0.0 2.0 0.00 0.00 0.00 73 1009.8
20260905001401 84 0 0.0 1.0 0.00 0.00 0.00 72 1009.8
20260905000902 85 0 0.0 0.0 0.00 0.00 0.00 72 1010.1
20260905000414 85 0 0.0 0.0 0.00 0.00 0.00 72 1010.1
20260904235901 85 0 0.0 0.0 0.00 0.00 0.00 72 1010.1
20260904235416 86 0 0.0 0.0 0.00 0.00 0.00 71 1009.9
20260904234901 86 0 0.0 0.0 0.00 0.00 0.00 71 1009.9
20260904234407 87 0 0.0 0.0 0.00 0.00 0.00 70 1009.9
20260904233901 87 0 0.0 0.0 0.00 0.00 0.00 70 1010.7
20260904233418 87 0 0.0 0.0 0.00 0.00 0.00 69 1010.7